Overview Statistics Trail Chart Weather Telemetry Raw packets
 

This is the latest recevied weather packets stored in our database for station/object ac2ev. If no packets are shown the sender has not sent any weather packets the latest 10 day(s).

<< 62 63 64 65 66 67 68 >>
Time Temp. Humidity Pressure Rain* Wind** Luminosity Snow
1788224042 20.56° C 88% 1015.4 hPa 0.25 mm - - -
1788223743 20.56° C 88% 1015.2 hPa 0.76 mm - - -
1788223442 20.56° C 88% 1015.4 hPa 1.02 mm - - -
1788223142 20.56° C 88% 1015.3 hPa 1.02 mm - - -
1788222843 20.56° C 88% 1015.2 hPa 1.02 mm - - -
1788222543 20.56° C 88% 1015.2 hPa 1.02 mm - - -
1788222242 20.56° C 88% 1015.2 hPa 1.02 mm - - -
1788221963 20.56° C 88% 1015.1 hPa 1.02 mm - - -
1788221643 20.56° C 88% 1015.2 hPa 1.02 mm - - -
1788221342 20.56° C 88% 1015.2 hPa 1.02 mm - - -
1788221044 20.56° C 88% 1015.3 hPa 1.02 mm - - -
1788220743 20.56° C 88% 1015.3 hPa 0.76 mm - - -
1788220444 20.56° C 88% 1015.3 hPa 0.76 mm - - -
1788220165 20.56° C 88% 1015.3 hPa 0.25 mm - - -
1788219841 20.56° C 88% 1015.3 hPa 0 mm - - -
1788219539 20.56° C 88% 1015.3 hPa 0 mm - - -
1788219237 20.56° C 89% 1015.3 hPa 0 mm - - -
1788218935 20.56° C 88% 1015.4 hPa 0 mm - - -
1788218632 20.56° C 89% 1015.5 hPa 0 mm - - -
1788218362 20.56° C 89% 1015.4 hPa 0 mm - - -
1788218029 20.56° C 88% 1015.4 hPa 0 mm - - -
1788217763 20.56° C 89% 1015.5 hPa 0 mm - - -
1788217426 20.56° C 89% 1015.5 hPa 0 mm - - -
1788217124 20.56° C 88% 1015.5 hPa 0 mm - - -
1788216819 20.56° C 89% 1015.5 hPa 0 mm - - -

* Rain latest hour (hover to see other rain measurements)
** Current wind speed in m/s (hover to see current wind gust speed)